Regional Weather Roundup
Issued by NWS

Home | Current Version | Previous Version | Text Only | Print | Product List | Glossary On
Versions: 1 2 3 4 5 6 7 8 9 10 11 12 13 14 15 16 17 18 19 20 21 22 23 24 25 26 27 28 29 30 31 32 33 34 35 36 37 38 39 40 41 42 43 44 45 46 47 48 49 50
000
ASUS43 KTOP 172008
RWRKS

WEATHER ROUNDUP FOR KANSAS
NATIONAL WEATHER SERVICE GOODLAND KS
300 PM CDT THU APR 17 2014

NOTE:  "FAIR" INDICATES FEW OR NO CLOUDS BELOW 12,000 FEET WITH NO
SIGNIFICANT WEATHER AND/OR OBSTRUCTIONS TO VISIBILITY.

KSZ001>006-013>018-027>032-041>047-172100-
NORTHWEST KANSAS

CITY           SKY/WX    TMP DP  RH WIND       PRES   REMARKS
GOODLAND       CLOUDY    52  35  52 S17       30.20F
HAYS           SUNNY     52  28  40 CALM      30.26F
HILL CITY      SUNNY     51  28  41 NW3       30.25F
RUSSELL        SUNNY     51  28  41 NW3       30.25F
$$

KSZ061>065-074>080-084>089-172100-
SOUTHWEST KANSAS

CITY           SKY/WX    TMP DP  RH WIND       PRES   REMARKS
DODGE CITY     CLOUDY    45  38  76 VRB6      30.25F
ELKHART          N/A     49  37  63 E8          N/A
GARDEN CITY    CLOUDY    46  39  76 E5        30.25S
GREAT BEND     PTSUNNY   50  30  46 NE6       30.26F
LIBERAL        CLOUDY    46  37  71 E5        30.26S
PRATT          PTSUNNY   45  36  70 N8        30.28S
$$

KSZ066>073-081>083-090>101-172100-
SOUTHEAST KANSAS

CITY           SKY/WX    TMP DP  RH WIND       PRES   REMARKS
CHANUTE        CLOUDY    47  34  60 N9        30.29S
COFFEYVILLE    CLOUDY    54  37  52 N13       30.26S
HUTCHINSON     PTSUNNY   48  33  56 NE6       30.28F
MEDICINE LODGE   N/A     43  38  82 NE6       30.28F
NEWTON         CLOUDY    43  30  61 N7        30.31F
PARSONS        CLOUDY    53  36  52 N9        30.28S
WICHITA INTL   CLOUDY    43  34  70 N9        30.28F
WICHITA JABRA  CLOUDY    42  35  76 N8        30.28F
WICHITA MCCONL CLOUDY    42  38  87 N8        30.28F
WINFIELD       CLOUDY    50  35  56 NE12      30.27F
$$

KSZ007>012-019>026-033>040-048>060-102>105-172100-
NORTHEAST KANSAS

CITY           SKY/WX    TMP DP  RH WIND       PRES   REMARKS
CONCORDIA      SUNNY     52  28  39 VRB3      30.27F
EMPORIA        LGT RAIN  42  34  73 VRB3      30.29F
LAWRENCE       CLOUDY    47  32  56 CALM      30.30S
MANHATTAN      MOSUNNY   51  31  46 VRB3      30.28F
OLATHE IND     CLOUDY    44  32  62 CALM      30.30S
OLATHE EXE     LGT RAIN  44  31  60 CALM      30.29R
SALINA         MOSUNNY   53  29  39 VRB3      30.28F
TOPEKA BILLARD CLOUDY    49  32  52 CALM      30.30F
TOPEKA FORBES  CLOUDY    47  31  53 N6        30.29F
$$



USA.gov is the U.S. government's official web portal to all federal, state and local government web resources and services.